Weather History for KACY - October, 2012

Change the Weather History Date:

Wednesday, October 10, 2012

  Actual Average Record
Temperature  
Mean Temperature 60 °F 58 °F  
Max Temperature 68 °F 69 °F 85 °F (1939)
Min Temperature 51 °F 47 °F 30 °F (1989)
Degree Days  
Heating Degree Days 5 8  
Month to date heating degree days 54 65  
Since 1 July heating degree days 102 127  
Cooling Degree Days 0 1  
Month to date cooling degree days 27 11  
Year to date cooling degree days 1214 1045  
Growing Degree Days 12 (Base 50)    
Moisture  
Dew Point 54 °F    
Average Humidity 74    
Maximum Humidity 100    
Minimum Humidity 48    
Precipitation  
Precipitation 0.19 in 0.11 in 1.62 in (2013)
Month to date precipitation 1.40 1.10  
Year to date precipitation 33.42 32.47  
Snow  
Snow 0.00 in 0.00 in T in (1979)
Month to date snowfall 0.0 0.0  
Since 1 July snowfall 0.0 0.0  
Since 1 September snowfall 0.0 0.0  
Snow Depth 0.00 in    
Sea Level Pressure  
Sea Level Pressure 29.96 in    
Wind  
Wind Speed 9 mph (WNW)    
Max Wind Speed 18 mph    
Max Gust Speed 25 mph    
Visibility 6 miles    
Events Fog , Rain    
T = Trace of Precipitation, MM = Missing Value Source: NWS Daily Summary

Daily Weather History Graph

Daily Weather History Graph

Search for Another Location

Airport or City:

Trip Planner

Search our weather history database for the weather conditions in past years. The results will help you decide how hot, cold, wet, or windy it might be!

Date:

Astronomy

Oct. 10, 2012 Rise Set
Actual Time 7:03 AM EDT 6:25 PM EDT
Civil Twilight 6:36 AM EDT 6:52 PM EDT
Nautical Twilight 6:05 AM EDT 7:23 PM EDT
Astronomical Twilight 5:34 AM EDT 7:55 PM EDT
Moon 1:38 AM EDT (10/10) 3:26 PM EDT (10/10)
Length of Visible Light 12h 16m
Length of Day
11h 22m
Waning Crescent, 27% of the Moon is Illuminated
Oct 10
Waning Crescent
Oct 15
New
Oct 21
First Quarter
Oct 29
Full
Nov 6
Last Quarter

Hourly Weather History & Observations

Time (EDT) Temp. Dew Point Humidity Pressure Visibility Wind Dir Wind Speed Gust Speed Precip Events Conditions
12:07 AM 60.8 °F 57.2 °F 88% 30.04 in 2.5 mi North 3.5 mph - 0.04 in Rain Rain
12:16 AM 60.8 °F 57.2 °F 88% 30.04 in 1.8 mi North 6.9 mph - 0.08 in Rain Heavy Rain
12:40 AM 60.8 °F 57.2 °F 88% 30.03 in 1.5 mi NNE 6.9 mph - 0.26 in Rain Heavy Rain
12:54 AM 60.1 °F 59.0 °F 96% 30.03 in 2.0 mi North 9.2 mph - 0.35 in Rain Heavy Rain
12:59 AM 60.8 °F 59.0 °F 94% 30.03 in 1.8 mi North 9.2 mph - 0.03 in Rain Heavy Rain
1:16 AM 60.8 °F 59.0 °F 94% 30.02 in 2.0 mi North 10.4 mph - 0.14 in Rain Rain
1:23 AM 60.8 °F 59.0 °F 94% 30.02 in 3.0 mi North 9.2 mph - 0.14 in Rain Rain
1:43 AM 60.8 °F 59.0 °F 94% 30.01 in 6.0 mi North 8.1 mph - 0.16 in Rain Light Rain
1:54 AM 60.1 °F 59.0 °F 96% 30.01 in 10.0 mi North 6.9 mph - 0.16 in   Overcast
2:41 AM 60.8 °F 57.2 °F 88% 29.99 in 2.0 mi NNE 11.5 mph - 0.03 in Rain Rain
2:54 AM 60.1 °F 57.9 °F 93% 29.98 in 2.5 mi NNE 13.8 mph - 0.05 in Rain Light Rain
3:06 AM 60.8 °F 57.2 °F 88% 29.97 in 4.0 mi NNE 11.5 mph - 0.01 in Rain Light Rain
3:50 AM 60.8 °F 57.2 °F 88% 29.98 in 10.0 mi Calm Calm - 0.01 in   Mostly Cloudy
4:03 AM 60.8 °F 57.2 °F 88% 29.97 in 10.0 mi Calm Calm - N/A   Overcast
4:54 AM 59.0 °F 57.0 °F 93% 29.97 in 10.0 mi WNW 3.5 mph - N/A   Overcast
5:42 AM 59.0 °F 57.2 °F 94% 29.97 in 1.0 mi WNW 4.6 mph - N/A   Overcast
5:51 AM 59.0 °F 57.2 °F 94% 29.97 in 1.0 mi WNW 4.6 mph - N/A   Overcast
5:54 AM 59.0 °F 57.9 °F 96% 29.97 in 1.0 mi NW 4.6 mph - N/A   Overcast
6:54 AM 57.9 °F 57.0 °F 97% 29.96 in 0.5 mi West 5.8 mph - N/A   Overcast
7:27 AM 57.2 °F 55.4 °F 94% 29.97 in 0.2 mi West 6.9 mph - N/A Fog Fog
7:54 AM 57.0 °F 55.9 °F 96% 29.97 in 0.5 mi WNW 8.1 mph - N/A Fog Fog
8:46 AM 57.2 °F 57.2 °F 100% 29.97 in 2.0 mi West 6.9 mph - N/A   Overcast
8:54 AM 57.9 °F 57.0 °F 97% 29.98 in 3.0 mi WSW 6.9 mph - N/A   Overcast
9:17 AM 57.2 °F 57.2 °F 100% 29.98 in 3.0 mi WSW 11.5 mph - N/A   Overcast
9:54 AM 59.0 °F 57.0 °F 93% 29.97 in 3.0 mi West 9.2 mph - N/A   Overcast
10:54 AM 61.0 °F 55.9 °F 83% 29.96 in 10.0 mi WSW 10.4 mph - N/A   Overcast
11:23 AM 64.4 °F 55.4 °F 73% 29.95 in 10.0 mi West 9.2 mph - N/A   Overcast
11:54 AM 63.0 °F 55.0 °F 75% 29.94 in 10.0 mi West 10.4 mph - N/A   Overcast
12:03 PM 64.4 °F 55.4 °F 73% 29.94 in 10.0 mi WNW 10.4 mph - N/A   Mostly Cloudy
12:54 PM 66.9 °F 54.0 °F 63% 29.91 in 10.0 mi Variable 6.9 mph - N/A   Scattered Clouds
1:54 PM 66.9 °F 53.1 °F 61% 29.88 in 10.0 mi West 15.0 mph 19.6 mph N/A   Mostly Cloudy
2:54 PM 66.9 °F 50.0 °F 54% 29.87 in 10.0 mi West 11.5 mph 19.6 mph N/A   Mostly Cloudy
3:54 PM 66.9 °F 48.0 °F 51% 29.85 in 10.0 mi WSW 9.2 mph - N/A   Partly Cloudy
4:54 PM 66.0 °F 46.9 °F 50% 29.86 in 10.0 mi West 10.4 mph - N/A   Clear
5:54 PM 64.0 °F 46.0 °F 52% 29.87 in 10.0 mi West 10.4 mph - N/A   Clear
6:54 PM 60.1 °F 46.9 °F 62% 29.89 in 10.0 mi SW 4.6 mph - N/A   Clear
7:54 PM 55.9 °F 46.9 °F 72% 29.91 in 10.0 mi SSW 5.8 mph - N/A   Clear
8:54 PM 57.0 °F 46.9 °F 69% 29.93 in 10.0 mi SW 4.6 mph - N/A   Mostly Cloudy
9:54 PM 59.0 °F 48.0 °F 67% 29.95 in 10.0 mi WSW 6.9 mph - N/A   Overcast
10:54 PM 57.9 °F 46.9 °F 67% 30.00 in 10.0 mi WNW 13.8 mph - N/A   Mostly Cloudy
11:54 PM 55.0 °F 39.9 °F 57% 30.02 in 10.0 mi WNW 13.8 mph - N/A   Clear